Flag for U.S.A. Weather past 2 weeks in Canton, Ohio, U.S.A.

Now
18 °F

Light snow. Mostly cloudy.


Feels Like: 7 °F
Forecast: 13 / 23 °F
Wind: 9 mph from North

Location: Akron-Canton Regional Airport

Current Time: Jan 27, 2015 at 8:06:16 AM

Latest Report: Jan 27, 2015 at 6:51 AM


Visibility: 4 mi

Pressure: 29.97 "Hg

Humidity: 77%

Dew point: 12 °F

Location of CantonLocation

Historic Weather in Canton — Graph

°F

Canton temperature yesterday

Maximum temperature yesterday: 27 °F (at 1:51 PM)
Minimum temperature yesterday: 20 °F (at 12:51 AM)
Average temperature yesterday: 21 °F

Past Weeks' High & Low Weather Summary

 TemperatureHumidityPressure
High44 °F (Jan 17, 8:51 PM)92% (Jan 12, 8:51 AM)30.68 "Hg (Jan 12, 8:51 AM)
Low4 °F (Jan 14, 6:51 AM)45% (Jan 13, 3:51 PM)29.60 "Hg (Jan 24, 2:51 PM)
Average27 °F76%30.06 "Hg
* Reported Jan 12 6:51 AM — Jan 27 6:51 AM, Canton, Weather by CustomWeather, © 2014

Note: Actual official high and low records may vary slightly from our data, if they occured in-between our weather recording intervals... More about our weather records

Advertising

Canton weather history for previous 24 hours

 ConditionsComfort  
Time TempWeatherWind HumidityBarometerVisibility
6:51 AM
Jan 27
18 °FLight snow. Mostly cloudy.9 mph77%29.97 "Hg4 mi
5:51 AM19 °FLight snow. Overcast.7 mph74%29.95 "Hg3 mi
4:51 AM19 °FLight snow. Overcast.7 mph77%29.93 "Hg3 mi
3:51 AM19 °FLight snow. Overcast.7 mph81%29.92 "Hg3 mi
2:51 AM18 °FLight snow. Overcast.7 mph80%29.93 "Hg3 mi
1:51 AM18 °FLight snow. Ice fog.6 mph84%29.92 "Hg3 mi
12:51 AM19 °FLight snow. Overcast.9 mph81%29.91 "Hg3 mi
11:51 PM
Jan 26
20 °FLight snow. Overcast.7 mph82%29.93 "Hg2 mi
10:51 PM20 °FLight snow. Overcast.7 mph82%29.93 "Hg4 mi
9:51 PM20 °FLight snow. Overcast.10 mph82%29.93 "Hg3 mi
8:51 PM20 °FOvercast.12 mph78%29.93 "Hg10 mi
7:51 PM20 °FOvercast.10 mph78%29.92 "Hg10 mi
6:51 PM20 °FOvercast.10 mph82%29.90 "Hg7 mi
5:51 PM21 °FOvercast.9 mph78%29.88 "Hg6 mi
4:51 PM23 °FOvercast.13 mph74%29.85 "Hg4 mi
3:51 PM24 °FOvercast.14 mph77%29.83 "Hg7 mi
2:51 PM26 °FOvercast.13 mph71%29.80 "Hg10 mi
1:51 PM27 °FOvercast.8 mph69%29.80 "Hg10 mi
12:51 PM24 °FLight snow. Mostly cloudy.12 mph75%29.81 "Hg8 mi
11:51 AM22 °FLight snow. Mostly cloudy.10 mph82%29.83 "Hg1 mi
10:51 AM22 °FLight snow. Mostly cloudy.9 mph78%29.83 "Hg1 mi
9:51 AM20 °FLight snow. Overcast.10 mph82%29.82 "Hg1 mi
8:51 AM20 °FLight snow. Overcast.12 mph82%29.81 "Hg1 mi
Weather by CustomWeather, © 2014

See weather overviewHow to use our weather pages